| time (UTC) | temp F | wind direction | speed knots | gust knots | rain 1hr in | rain 24hr in | rain mn in | humidity % | barometer mb |
| 20260906221041 | 93 | 0 | 0.9 | 7.0 | 0.00 | 0.00 | 0.00 | 32 | 1016.3 |
| 20260906220544 | 93 | 0 | 0.0 | 5.2 | 0.00 | 0.00 | 0.00 | 34 | 1016.4 |
| 20260906220054 | 93 | 170 | 1.7 | 5.2 | 0.00 | 0.00 | 0.00 | 32 | 1016.4 |
| 20260906215542 | 93 | 0 | 0.9 | 6.1 | 0.00 | 0.00 | 0.00 | 32 | 1016.5 |
| 20260906215042 | 94 | 156 | 1.7 | 6.1 | 0.00 | 0.00 | 0.00 | 30 | 1016.6 |
| 20260906214559 | 94 | 195 | 0.9 | 4.3 | 0.00 | 0.00 | 0.00 | 31 | 1016.6 |
| 20260906214041 | 94 | 79 | 0.0 | 4.3 | 0.00 | 0.00 | 0.00 | 32 | 1016.7 |
| 20260906213542 | 93 | 42 | 0.9 | 3.5 | 0.00 | 0.00 | 0.00 | 31 | 1016.7 |
| 20260906213055 | 92 | 185 | 0.0 | 1.7 | 0.00 | 0.00 | 0.00 | 32 | 1016.7 |
| 20260906212545 | 92 | 63 | 0.0 | 5.2 | 0.00 | 0.00 | 0.00 | 34 | 1016.8 |
| 20260906212041 | 92 | 0 | 1.7 | 5.2 | 0.00 | 0.00 | 0.00 | 33 | 1016.8 |
| 20260906211555 | 92 | 153 | 0.9 | 8.7 | 0.00 | 0.00 | 0.00 | 34 | 1016.8 |
| 20260906211045 | 92 | 44 | 2.6 | 8.7 | 0.00 | 0.00 | 0.00 | 32 | 1016.8 |
| 20260906210546 | 92 | 248 | 0.9 | 4.3 | 0.00 | 0.00 | 0.00 | 30 | 1017.0 |
| 20260906210107 | 93 | 227 | 0.0 | 4.3 | 0.00 | 0.00 | 0.00 | 29 | 1017.1 |
| 20260906205546 | 94 | 0 | 0.0 | 3.5 | 0.00 | 0.00 | 0.00 | 31 | 1017.2 |
| 20260906205044 | 94 | 0 | 0.9 | 9.6 | 0.00 | 0.00 | 0.00 | 30 | 1017.1 |
| 20260906204601 | 94 | 0 | 1.7 | 9.6 | 0.00 | 0.00 | 0.00 | 30 | 1017.2 |
| 20260906204045 | 94 | 215 | 0.0 | 2.6 | 0.00 | 0.00 | 0.00 | 30 | 1017.3 |
| 20260906203542 | 94 | 0 | 0.0 | 2.6 | 0.00 | 0.00 | 0.00 | 30 | 1017.5 |
| 20260906203054 | 93 | 128 | 0.0 | 4.3 | 0.00 | 0.00 | 0.00 | 33 | 1017.5 |
| 20260906202544 | 92 | 0 | 0.9 | 4.3 | 0.00 | 0.00 | 0.00 | 35 | 1017.5 |
| 20260906202046 | 92 | 40 | 1.7 | 4.3 | 0.00 | 0.00 | 0.00 | 32 | 1017.5 |
| 20260906201633 | 91 | 270 | 0.0 | 8.7 | 0.00 | 0.00 | 0.00 | 32 | 1017.6 |
| 20260906201045 | 91 | 138 | 0.9 | 8.7 | 0.00 | 0.00 | 0.00 | 32 | 1017.7 |
| 20260906200545 | 92 | 229 | 0.9 | 4.3 | 0.00 | 0.00 | 0.00 | 31 | 1017.7 |
| 20260906200059 | 92 | 60 | 0.0 | 3.5 | 0.00 | 0.00 | 0.00 | 33 | 1017.9 |
| 20260906195544 | 91 | 320 | 0.0 | 5.2 | 0.00 | 0.00 | 0.00 | 33 | 1018.0 |
| 20260906195045 | 91 | 77 | 0.9 | 5.2 | 0.00 | 0.00 | 0.00 | 34 | 1018.1 |
| 20260906194606 | 91 | 75 | 1.7 | 5.2 | 0.00 | 0.00 | 0.00 | 35 | 1018.2 |
| 20260906194046 | 91 | 60 | 0.0 | 3.5 | 0.00 | 0.00 | 0.00 | 35 | 1018.3 |
| 20260906193544 | 90 | 0 | 0.0 | 3.5 | 0.00 | 0.00 | 0.00 | 36 | 1018.4 |
| 20260906193056 | 90 | 21 | 0.0 | 2.6 | 0.00 | 0.00 | 0.00 | 36 | 1018.5 |
| 20260906192545 | 90 | 0 | 0.0 | 3.5 | 0.00 | 0.00 | 0.00 | 33 | 1018.6 |
| 20260906192048 | 90 | 199 | 0.9 | 4.3 | 0.00 | 0.00 | 0.00 | 36 | 1018.6 |
| 20260906191606 | 90 | 67 | 0.9 | 4.3 | 0.00 | 0.00 | 0.00 | 36 | 1018.8 |
| 20260906191044 | 90 | 163 | 0.9 | 4.3 | 0.00 | 0.00 | 0.00 | 35 | 1018.8 |
| 20260906190545 | 89 | 0 | 0.9 | 3.5 | 0.00 | 0.00 | 0.00 | 36 | 1018.8 |
| 20260906190058 | 89 | 44 | 0.9 | 2.6 | 0.00 | 0.00 | 0.00 | 37 | 1018.9 |
| 20260906185548 | 89 | 265 | 0.0 | 2.6 | 0.00 | 0.00 | 0.00 | 35 | 1019.1 |
| 20260906185044 | 88 | 0 | 0.0 | 2.6 | 0.00 | 0.00 | 0.00 | 37 | 1019.3 |
| 20260906184559 | 87 | 64 | 0.0 | 7.0 | 0.00 | 0.00 | 0.00 | 38 | 1019.3 |
| 20260906184044 | 87 | 236 | 0.9 | 5.2 | 0.00 | 0.00 | 0.00 | 38 | 1019.5 |
| 20260906183546 | 87 | 68 | 0.9 | 2.6 | 0.00 | 0.00 | 0.00 | 40 | 1019.6 |
| 20260906183057 | 86 | 0 | 0.0 | 4.3 | 0.00 | 0.00 | 0.00 | 40 | 1019.6 |
| 20260906182549 | 86 | 315 | 0.0 | 4.3 | 0.00 | 0.00 | 0.00 | 39 | 1019.7 |
| 20260906182049 | 86 | 165 | 0.9 | 2.6 | 0.00 | 0.00 | 0.00 | 40 | 1019.8 |
| 20260906181604 | 86 | 0 | 0.0 | 3.5 | 0.00 | 0.00 | 0.00 | 43 | 1019.8 |
| 20260906181045 | 86 | 89 | 0.0 | 3.5 | 0.00 | 0.00 | 0.00 | 40 | 1019.9 |
| 20260906180542 | 85 | 202 | 0.0 | 3.5 | 0.00 | 0.00 | 0.00 | 43 | 1020.0 |
| 20260906180055 | 84 | 0 | 0.0 | 3.5 | 0.00 | 0.00 | 0.00 | 45 | 1020.0 |
| 20260906175541 | 85 | 89 | 0.9 | 3.5 | 0.00 | 0.00 | 0.00 | 43 | 1020.2 |
| 20260906175041 | 84 | 0 | 0.0 | 1.7 | 0.00 | 0.00 | 0.00 | 45 | 1020.5 |
| 20260906174554 | 84 | 263 | 0.0 | 1.7 | 0.00 | 0.00 | 0.00 | 45 | 1020.5 |
| 20260906174041 | 83 | 0 | 0.0 | 2.6 | 0.00 | 0.00 | 0.00 | 45 | 1020.6 |
| 20260906173542 | 83 | 0 | 0.0 | 2.6 | 0.00 | 0.00 | 0.00 | 45 | 1020.8 |
| 20260906173056 | 83 | 265 | 0.9 | 2.6 | 0.00 | 0.00 | 0.00 | 45 | 1020.8 |
| 20260906172540 | 83 | 61 | 0.0 | 3.5 | 0.00 | 0.00 | 0.00 | 45 | 1020.9 |
| 20260906172041 | 82 | 0 | 0.9 | 3.5 | 0.00 | 0.00 | 0.00 | 46 | 1020.9 |
| 20260906171555 | 82 | 0 | 0.9 | 2.6 | 0.00 | 0.00 | 0.00 | 49 | 1021.0 |
| 20260906171041 | 81 | 0 | 0.0 | 3.5 | 0.00 | 0.00 | 0.00 | 46 | 1021.1 |
| 20260906170541 | 81 | 65 | 0.0 | 3.5 | 0.00 | 0.00 | 0.00 | 47 | 1021.2 |
| 20260906170055 | 80 | 74 | 0.0 | 2.6 | 0.00 | 0.00 | 0.00 | 49 | 1021.3 |
| 20260906165541 | 79 | 0 | 0.0 | 4.3 | 0.00 | 0.00 | 0.00 | 52 | 1021.3 |
| 20260906165041 | 79 | 0 | 0.9 | 4.3 | 0.00 | 0.00 | 0.00 | 52 | 1021.4 |
| 20260906164556 | 78 | 0 | 0.0 | 1.7 | 0.00 | 0.00 | 0.00 | 53 | 1021.4 |
| 20260906164041 | 78 | 0 | 0.0 | 1.7 | 0.00 | 0.00 | 0.00 | 53 | 1021.4 |
| 20260906163541 | 77 | 0 | 0.0 | 2.6 | 0.00 | 0.00 | 0.00 | 54 | 1021.4 |
| 20260906163101 | 77 | 317 | 0.0 | 2.6 | 0.00 | 0.00 | 0.00 | 57 | 1021.4 |
| 20260906162541 | 76 | 0 | 0.0 | 2.6 | 0.00 | 0.00 | 0.00 | 59 | 1021.4 |
| 20260906162045 | 75 | 0 | 0.0 | 3.5 | 0.00 | 0.00 | 0.00 | 63 | 1021.3 |
| 20260906161607 | 74 | 0 | 0.9 | 3.5 | 0.00 | 0.00 | 0.00 | 63 | 1021.3 |
| 20260906161041 | 73 | 0 | 0.0 | 2.6 | 0.00 | 0.00 | 0.00 | 66 | 1021.4 |
| 20260906160541 | 72 | 42 | 0.0 | 2.6 | 0.00 | 0.00 | 0.00 | 67 | 1021.4 |
| 20260906160058 | 72 | 104 | 0.0 | 2.6 | 0.00 | 0.00 | 0.00 | 68 | 1021.4 |
| 20260906155541 | 71 | 252 | 0.0 | 2.6 | 0.00 | 0.00 | 0.00 | 69 | 1021.3 |
| 20260906155041 | 71 | 0 | 0.0 | 2.6 | 0.00 | 0.00 | 0.00 | 71 | 1021.2 |
| 20260906154552 | 70 | 0 | 0.0 | 0.0 | 0.00 | 0.00 | 0.00 | 73 | 1021.3 |
| 20260906154041 | 70 | 0 | 0.0 | 0.0 | 0.00 | 0.00 | 0.00 | 73 | 1021.3 |
| 20260906153542 | 69 | 0 | 0.0 | 0.0 | 0.00 | 0.00 | 0.00 | 74 | 1021.4 |
| 20260906153059 | 69 | 0 | 0.0 | 0.0 | 0.00 | 0.00 | 0.00 | 74 | 1021.4 |
| 20260906152541 | 69 | 0 | 0.0 | 0.0 | 0.00 | 0.00 | 0.00 | 75 | 1021.6 |
| 20260906152046 | 68 | 0 | 0.0 | 0.0 | 0.00 | 0.00 | 0.00 | 76 | 1021.6 |
| 20260906151557 | 68 | 0 | 0.0 | 0.0 | 0.00 | 0.00 | 0.00 | 76 | 1021.5 |
| 20260906151040 | 68 | 0 | 0.0 | 0.0 | 0.00 | 0.00 | 0.00 | 76 | 1021.5 |
| 20260906150544 | 67 | 0 | 0.0 | 0.0 | 0.00 | 0.00 | 0.00 | 78 | 1021.5 |
| 20260906150055 | 67 | 0 | 0.0 | 0.0 | 0.00 | 0.00 | 0.00 | 78 | 1021.6 |
| 20260906145541 | 67 | 0 | 0.0 | 0.0 | 0.00 | 0.00 | 0.00 | 79 | 1021.6 |
| 20260906145041 | 66 | 0 | 0.0 | 0.0 | 0.00 | 0.00 | 0.00 | 79 | 1021.5 |
| 20260906144551 | 66 | 0 | 0.0 | 0.0 | 0.00 | 0.00 | 0.00 | 80 | 1021.5 |
| 20260906144043 | 66 | 0 | 0.0 | 0.0 | 0.00 | 0.00 | 0.00 | 81 | 1021.4 |
| 20260906143541 | 66 | 0 | 0.0 | 0.0 | 0.00 | 0.00 | 0.00 | 81 | 1021.4 |
| 20260906143059 | 65 | 0 | 0.0 | 0.0 | 0.00 | 0.00 | 0.00 | 82 | 1021.5 |
| 20260906142540 | 65 | 0 | 0.0 | 0.0 | 0.00 | 0.00 | 0.00 | 82 | 1021.5 |
| 20260906142042 | 65 | 0 | 0.0 | 0.9 | 0.00 | 0.00 | 0.00 | 83 | 1021.5 |
| 20260906141558 | 64 | 0 | 0.0 | 2.6 | 0.00 | 0.00 | 0.00 | 84 | 1021.5 |
| 20260906141042 | 64 | 0 | 0.0 | 2.6 | 0.00 | 0.00 | 0.00 | 84 | 1021.5 |
| 20260906140541 | 64 | 0 | 0.0 | 1.7 | 0.00 | 0.00 | 0.00 | 85 | 1021.6 |
| 20260906140104 | 63 | 0 | 0.0 | 1.7 | 0.00 | 0.00 | 0.00 | 85 | 1021.6 |
| 20260906135541 | 63 | 0 | 0.0 | 1.7 | 0.00 | 0.00 | 0.00 | 85 | 1021.6 |
| 20260906135041 | 63 | 0 | 0.0 | 1.7 | 0.00 | 0.00 | 0.00 | 86 | 1021.4 |
| 20260906134610 | 62 | 259 | 0.0 | 1.7 | 0.00 | 0.00 | 0.00 | 86 | 1021.4 |
| 20260906134041 | 62 | 0 | 0.0 | 1.7 | 0.00 | 0.00 | 0.00 | 86 | 1021.5 |
| 20260906133541 | 62 | 0 | 0.0 | 1.7 | 0.00 | 0.00 | 0.00 | 87 | 1021.4 |
| 20260906133101 | 61 | 0 | 0.0 | 0.9 | 0.00 | 0.00 | 0.00 | 86 | 1021.4 |
| 20260906132547 | 61 | 0 | 0.0 | 0.0 | 0.00 | 0.00 | 0.00 | 85 | 1021.3 |
| 20260906132043 | 61 | 0 | 0.0 | 0.0 | 0.00 | 0.00 | 0.00 | 85 | 1021.2 |
| 20260906131556 | 61 | 0 | 0.0 | 0.0 | 0.00 | 0.00 | 0.00 | 85 | 1021.2 |
| 20260906131040 | 60 | 0 | 0.0 | 0.0 | 0.00 | 0.00 | 0.00 | 85 | 1021.1 |
| 20260906130542 | 60 | 0 | 0.0 | 0.0 | 0.00 | 0.00 | 0.00 | 84 | 1021.1 |
| 20260906130108 | 60 | 0 | 0.0 | 0.0 | 0.00 | 0.00 | 0.00 | 84 | 1021.0 |
| 20260906125544 | 60 | 0 | 0.0 | 0.0 | 0.00 | 0.00 | 0.00 | 84 | 1021.0 |
| 20260906125043 | 61 | 0 | 0.0 | 0.0 | 0.00 | 0.00 | 0.00 | 84 | 1020.9 |
| 20260906124605 | 61 | 0 | 0.0 | 0.0 | 0.00 | 0.00 | 0.00 | 83 | 1020.8 |
| 20260906124044 | 61 | 0 | 0.0 | 0.9 | 0.00 | 0.00 | 0.00 | 83 | 1020.7 |
| 20260906123540 | 61 | 0 | 0.0 | 0.9 | 0.00 | 0.00 | 0.00 | 83 | 1020.9 |
| 20260906123057 | 61 | 0 | 0.0 | 0.9 | 0.00 | 0.00 | 0.00 | 82 | 1020.8 |
| 20260906122541 | 61 | 0 | 0.0 | 0.0 | 0.00 | 0.00 | 0.00 | 82 | 1020.9 |
| 20260906122041 | 61 | 0 | 0.0 | 0.0 | 0.00 | 0.00 | 0.00 | 81 | 1020.9 |
| 20260906121606 | 61 | 0 | 0.0 | 0.0 | 0.00 | 0.00 | 0.00 | 81 | 1021.0 |
| 20260906121041 | 61 | 0 | 0.0 | 0.0 | 0.00 | 0.00 | 0.00 | 80 | 1020.9 |
| 20260906120541 | 61 | 0 | 0.0 | 0.0 | 0.00 | 0.00 | 0.00 | 80 | 1020.8 |
| 20260906120101 | 61 | 0 | 0.0 | 0.0 | 0.00 | 0.00 | 0.00 | 79 | 1020.8 |
| 20260906115545 | 61 | 0 | 0.0 | 0.0 | 0.00 | 0.00 | 0.00 | 79 | 1020.9 |
| 20260906115044 | 61 | 0 | 0.0 | 0.0 | 0.00 | 0.00 | 0.00 | 78 | 1020.8 |
| 20260906114607 | 61 | 0 | 0.0 | 0.0 | 0.00 | 0.00 | 0.00 | 78 | 1020.8 |
| 20260906114044 | 61 | 0 | 0.0 | 0.0 | 0.00 | 0.00 | 0.00 | 77 | 1020.8 |
| 20260906113545 | 62 | 0 | 0.0 | 0.0 | 0.00 | 0.00 | 0.00 | 77 | 1020.8 |
| 20260906113107 | 62 | 0 | 0.0 | 0.0 | 0.00 | 0.00 | 0.00 | 76 | 1020.8 |
| 20260906112545 | 62 | 0 | 0.0 | 0.0 | 0.00 | 0.00 | 0.00 | 76 | 1020.7 |
| 20260906112045 | 62 | 0 | 0.0 | 0.0 | 0.00 | 0.00 | 0.00 | 75 | 1020.7 |
| 20260906111551 | 62 | 0 | 0.0 | 0.0 | 0.00 | 0.00 | 0.00 | 75 | 1020.7 |
| 20260906111045 | 62 | 0 | 0.0 | 0.0 | 0.00 | 0.00 | 0.00 | 74 | 1020.7 |
| 20260906110545 | 63 | 0 | 0.0 | 0.0 | 0.00 | 0.00 | 0.00 | 73 | 1020.7 |
| 20260906110057 | 63 | 0 | 0.0 | 0.0 | 0.00 | 0.00 | 0.00 | 72 | 1020.7 |
| 20260906105545 | 63 | 0 | 0.0 | 0.0 | 0.00 | 0.00 | 0.00 | 71 | 1020.7 |
| 20260906105048 | 63 | 0 | 0.0 | 0.0 | 0.00 | 0.00 | 0.00 | 71 | 1020.6 |
| 20260906104556 | 63 | 0 | 0.0 | 0.0 | 0.00 | 0.00 | 0.00 | 70 | 1020.4 |
| 20260906104045 | 64 | 0 | 0.0 | 0.0 | 0.00 | 0.00 | 0.00 | 68 | 1020.4 |
| 20260906103546 | 64 | 0 | 0.0 | 0.0 | 0.00 | 0.00 | 0.00 | 68 | 1020.4 |
| 20260906103052 | 64 | 0 | 0.0 | 0.0 | 0.00 | 0.00 | 0.00 | 67 | 1020.4 |
| 20260906102544 | 64 | 0 | 0.0 | 0.0 | 0.00 | 0.00 | 0.00 | 66 | 1020.3 |
| 20260906102048 | 64 | 0 | 0.0 | 0.0 | 0.00 | 0.00 | 0.00 | 66 | 1020.1 |
| 20260906101559 | 64 | 0 | 0.0 | 0.9 | 0.00 | 0.00 | 0.00 | 65 | 1020.2 |
| 20260906101049 | 64 | 0 | 0.0 | 1.7 | 0.00 | 0.00 | 0.00 | 64 | 1020.4 |
| 20260906100545 | 65 | 0 | 0.0 | 1.7 | 0.00 | 0.00 | 0.00 | 64 | 1020.4 |
| 20260906100056 | 64 | 0 | 0.0 | 0.0 | 0.00 | 0.00 | 0.00 | 65 | 1020.4 |
| 20260906095545 | 64 | 0 | 0.0 | 0.0 | 0.00 | 0.00 | 0.00 | 65 | 1020.4 |
| 20260906095045 | 65 | 0 | 0.0 | 0.0 | 0.00 | 0.00 | 0.00 | 66 | 1020.3 |
| 20260906094557 | 65 | 0 | 0.0 | 0.0 | 0.00 | 0.00 | 0.00 | 65 | 1020.4 |
| 20260906094044 | 65 | 0 | 0.0 | 0.0 | 0.00 | 0.00 | 0.00 | 65 | 1020.3 |
| 20260906093545 | 65 | 0 | 0.0 | 0.0 | 0.00 | 0.00 | 0.00 | 65 | 1020.3 |
| 20260906093057 | 65 | 0 | 0.0 | 0.0 | 0.00 | 0.00 | 0.00 | 65 | 1020.2 |
| 20260906092545 | 65 | 0 | 0.0 | 0.0 | 0.00 | 0.00 | 0.00 | 65 | 1020.3 |
| 20260906092046 | 65 | 0 | 0.0 | 0.9 | 0.00 | 0.00 | 0.00 | 64 | 1020.3 |
| 20260906091551 | 66 | 0 | 0.0 | 0.9 | 0.00 | 0.00 | 0.00 | 64 | 1020.3 |
| 20260906091045 | 66 | 0 | 0.0 | 0.0 | 0.00 | 0.00 | 0.00 | 63 | 1020.1 |
| 20260906090544 | 66 | 0 | 0.0 | 0.0 | 0.00 | 0.00 | 0.00 | 62 | 1020.0 |
| 20260906090049 | 66 | 0 | 0.0 | 0.0 | 0.00 | 0.00 | 0.00 | 62 | 1020.0 |
| 20260906085545 | 67 | 0 | 0.0 | 0.0 | 0.00 | 0.00 | 0.00 | 62 | 1019.9 |
| 20260906085044 | 67 | 0 | 0.0 | 0.0 | 0.00 | 0.00 | 0.00 | 61 | 1020.0 |
| 20260906084557 | 67 | 0 | 0.0 | 0.0 | 0.00 | 0.00 | 0.00 | 61 | 1019.9 |
| 20260906084045 | 67 | 0 | 0.0 | 1.7 | 0.00 | 0.00 | 0.00 | 60 | 1019.8 |
| 20260906083543 | 67 | 0 | 0.0 | 1.7 | 0.00 | 0.00 | 0.00 | 60 | 1019.9 |
| 20260906083055 | 68 | 0 | 0.0 | 0.0 | 0.00 | 0.00 | 0.00 | 59 | 1019.9 |
| 20260906082541 | 68 | 0 | 0.0 | 0.0 | 0.00 | 0.00 | 0.00 | 59 | 1020.0 |
| 20260906082041 | 68 | 0 | 0.0 | 0.0 | 0.00 | 0.00 | 0.00 | 58 | 1020.0 |
| 20260906081555 | 68 | 0 | 0.0 | 0.0 | 0.00 | 0.00 | 0.00 | 57 | 1020.2 |
| 20260906081045 | 69 | 0 | 0.0 | 0.0 | 0.00 | 0.00 | 0.00 | 57 | 1020.2 |
| 20260906080543 | 69 | 0 | 0.0 | 0.0 | 0.00 | 0.00 | 0.00 | 56 | 1020.3 |
| 20260906080106 | 69 | 0 | 0.0 | 0.0 | 0.00 | 0.00 | 0.00 | 56 | 1020.2 |
| 20260906075541 | 70 | 0 | 0.0 | 0.0 | 0.00 | 0.00 | 0.00 | 54 | 1020.2 |
| 20260906075040 | 70 | 0 | 0.0 | 0.0 | 0.00 | 0.00 | 0.00 | 54 | 1020.0 |
| 20260906074556 | 70 | 0 | 0.0 | 0.0 | 0.00 | 0.00 | 0.00 | 54 | 1020.0 |
| 20260906074040 | 71 | 0 | 0.0 | 2.6 | 0.00 | 0.00 | 0.00 | 53 | 1019.9 |
| 20260906073541 | 71 | 0 | 0.0 | 2.6 | 0.00 | 0.00 | 0.00 | 53 | 1019.8 |
| 20260906073057 | 71 | 0 | 0.0 | 2.6 | 0.00 | 0.00 | 0.00 | 52 | 1019.8 |
| 20260906072547 | 71 | 0 | 0.0 | 2.6 | 0.00 | 0.00 | 0.00 | 51 | 1019.7 |
| 20260906072042 | 71 | 290 | 0.0 | 1.7 | 0.00 | 0.00 | 0.00 | 51 | 1019.7 |
| 20260906071554 | 71 | 0 | 0.0 | 1.7 | 0.00 | 0.00 | 0.00 | 51 | 1019.7 |
| 20260906071041 | 72 | 184 | 0.0 | 0.9 | 0.00 | 0.00 | 0.00 | 50 | 1019.7 |
| 20260906070543 | 72 | 0 | 0.0 | 0.9 | 0.00 | 0.00 | 0.00 | 49 | 1019.5 |
| 20260906070057 | 72 | 0 | 0.0 | 0.9 | 0.00 | 0.00 | 0.00 | 48 | 1019.5 |
| 20260906065543 | 72 | 0 | 0.0 | 1.7 | 0.00 | 0.00 | 0.00 | 48 | 1019.5 |
| 20260906065041 | 73 | 0 | 0.0 | 3.5 | 0.00 | 0.00 | 0.00 | 48 | 1019.4 |
| 20260906064555 | 73 | 259 | 0.0 | 3.5 | 0.00 | 0.00 | 0.00 | 48 | 1019.5 |
| 20260906064040 | 73 | 258 | 0.0 | 2.6 | 0.00 | 0.00 | 0.00 | 47 | 1019.6 |
| 20260906063544 | 73 | 265 | 0.0 | 0.9 | 0.00 | 0.00 | 0.00 | 47 | 1019.7 |
| 20260906063057 | 73 | 0 | 0.0 | 0.9 | 0.00 | 0.00 | 0.00 | 46 | 1019.7 |
| 20260906062542 | 73 | 0 | 0.0 | 0.0 | 0.00 | 0.00 | 0.00 | 46 | 1019.8 |
| 20260906062044 | 73 | 0 | 0.0 | 0.0 | 0.00 | 0.00 | 0.00 | 45 | 1019.8 |
| 20260906061556 | 73 | 0 | 0.0 | 0.9 | 0.00 | 0.00 | 0.00 | 45 | 1020.0 |
| 20260906061040 | 73 | 0 | 0.0 | 1.7 | 0.00 | 0.00 | 0.00 | 44 | 1020.0 |
| 20260906060543 | 73 | 0 | 0.0 | 3.5 | 0.00 | 0.00 | 0.00 | 44 | 1020.3 |
| 20260906060133 | 73 | 0 | 0.9 | 3.5 | 0.00 | 0.00 | 0.00 | 45 | 1020.3 |
| 20260906055541 | 73 | 136 | 0.0 | 1.7 | 0.00 | 0.00 | 0.00 | 46 | 1020.4 |
| 20260906055041 | 72 | 0 | 0.0 | 1.7 | 0.00 | 0.00 | 0.00 | 46 | 1020.4 |
| 20260906054550 | 72 | 0 | 0.0 | 1.7 | 0.00 | 0.00 | 0.00 | 47 | 1020.4 |
| 20260906054041 | 72 | 0 | 0.0 | 0.9 | 0.00 | 0.00 | 0.00 | 45 | 1020.3 |
| 20260906053545 | 72 | 0 | 0.0 | 0.0 | 0.00 | 0.00 | 0.00 | 46 | 1020.3 |
| 20260906053055 | 72 | 0 | 0.0 | 0.0 | 0.00 | 0.00 | 0.00 | 46 | 1020.3 |
| 20260906052544 | 73 | 0 | 0.0 | 0.0 | 0.00 | 0.00 | 0.00 | 46 | 1020.4 |
| 20260906052045 | 73 | 0 | 0.0 | 0.0 | 0.00 | 0.00 | 0.00 | 46 | 1020.4 |
| 20260906051605 | 73 | 0 | 0.0 | 0.0 | 0.00 | 0.00 | 0.00 | 45 | 1020.4 |
| 20260906051045 | 73 | 0 | 0.0 | 0.0 | 0.00 | 0.00 | 0.00 | 45 | 1020.3 |
| 20260906050544 | 74 | 0 | 0.0 | 0.0 | 0.00 | 0.00 | 0.00 | 44 | 1020.4 |
| 20260906050114 | 74 | 0 | 0.0 | 0.0 | 0.00 | 0.00 | 0.00 | 44 | 1020.4 |
| 20260906045544 | 74 | 0 | 0.0 | 0.0 | 0.00 | 0.00 | 0.00 | 43 | 1020.4 |
| 20260906045045 | 74 | 0 | 0.0 | 0.0 | 0.00 | 0.00 | 0.00 | 43 | 1020.4 |
| 20260906044556 | 75 | 0 | 0.0 | 0.9 | 0.00 | 0.00 | 0.00 | 42 | 1020.5 |
| 20260906044045 | 75 | 0 | 0.0 | 0.9 | 0.00 | 0.00 | 0.00 | 43 | 1020.6 |
| 20260906043544 | 75 | 0 | 0.0 | 2.6 | 0.00 | 0.00 | 0.00 | 42 | 1020.6 |
| 20260906043110 | 75 | 0 | 0.0 | 2.6 | 0.00 | 0.00 | 0.00 | 42 | 1020.6 |
| 20260906042544 | 75 | 0 | 0.0 | 0.9 | 0.00 | 0.00 | 0.00 | 41 | 1020.4 |
| 20260906042044 | 75 | 0 | 0.0 | 3.5 | 0.00 | 0.00 | 0.00 | 40 | 1020.5 |
| 20260906041559 | 75 | 0 | 0.0 | 6.1 | 0.00 | 0.00 | 0.00 | 41 | 1020.5 |
| 20260906041045 | 74 | 0 | 0.0 | 6.1 | 0.00 | 0.00 | 0.00 | 41 | 1020.4 |
| 20260906040545 | 73 | 154 | 1.7 | 5.2 | 0.00 | 0.00 | 0.00 | 42 | 1020.3 |
| 20260906035544 | 73 | 0 | 0.0 | 0.0 | 0.00 | 0.00 | 0.00 | 44 | 1019.5 |
| 20260906035043 | 73 | 0 | 0.0 | 0.9 | 0.00 | 0.00 | 0.00 | 44 | 1019.4 |
| 20260906034601 | 73 | 0 | 0.0 | 0.9 | 0.00 | 0.00 | 0.00 | 44 | 1019.5 |
| 20260906034045 | 73 | 0 | 0.0 | 0.0 | 0.00 | 0.00 | 0.00 | 44 | 1019.5 |
| 20260906033544 | 74 | 0 | 0.0 | 0.0 | 0.00 | 0.00 | 0.00 | 43 | 1019.4 |
| 20260906033054 | 74 | 0 | 0.0 | 0.0 | 0.00 | 0.00 | 0.00 | 43 | 1019.4 |
| 20260906032545 | 74 | 0 | 0.0 | 0.0 | 0.00 | 0.00 | 0.00 | 42 | 1019.4 |
| 20260906032045 | 74 | 0 | 0.0 | 0.0 | 0.00 | 0.00 | 0.00 | 42 | 1019.3 |
| 20260906031609 | 75 | 0 | 0.0 | 0.0 | 0.00 | 0.00 | 0.00 | 41 | 1019.1 |
| 20260906031046 | 75 | 0 | 0.0 | 0.0 | 0.00 | 0.00 | 0.00 | 41 | 1019.1 |
| 20260906030545 | 75 | 0 | 0.0 | 0.0 | 0.00 | 0.00 | 0.00 | 40 | 1019.1 |
| 20260906030056 | 75 | 0 | 0.0 | 0.0 | 0.00 | 0.00 | 0.00 | 39 | 1019.0 |
| 20260906025544 | 76 | 0 | 0.0 | 0.0 | 0.00 | 0.00 | 0.00 | 39 | 1018.8 |
| 20260906025045 | 76 | 0 | 0.0 | 0.0 | 0.00 | 0.00 | 0.00 | 39 | 1018.7 |
| 20260906024556 | 76 | 0 | 0.0 | 0.0 | 0.00 | 0.00 | 0.00 | 40 | 1018.6 |
| 20260906024045 | 77 | 0 | 0.0 | 0.0 | 0.00 | 0.00 | 0.00 | 38 | 1018.6 |
| 20260906023545 | 77 | 0 | 0.0 | 0.0 | 0.00 | 0.00 | 0.00 | 37 | 1018.6 |
| 20260906023109 | 77 | 0 | 0.0 | 0.0 | 0.00 | 0.00 | 0.00 | 38 | 1018.6 |
| 20260906022543 | 78 | 0 | 0.0 | 0.0 | 0.00 | 0.00 | 0.00 | 37 | 1018.6 |
| 20260906022045 | 78 | 0 | 0.0 | 3.5 | 0.00 | 0.00 | 0.00 | 36 | 1018.6 |
| 20260906021558 | 79 | 0 | 0.0 | 3.5 | 0.00 | 0.00 | 0.00 | 35 | 1018.5 |
| 20260906021042 | 79 | 149 | 0.0 | 0.9 | 0.00 | 0.00 | 0.00 | 34 | 1018.5 |
| 20260906020545 | 80 | 0 | 0.0 | 0.9 | 0.00 | 0.00 | 0.00 | 35 | 1018.4 |
| 20260906020059 | 80 | 0 | 0.0 | 0.0 | 0.00 | 0.00 | 0.00 | 34 | 1018.4 |
| 20260906015546 | 81 | 0 | 0.0 | 0.9 | 0.00 | 0.00 | 0.00 | 32 | 1018.2 |
| 20260906015045 | 81 | 0 | 0.0 | 1.7 | 0.00 | 0.00 | 0.00 | 32 | 1018.0 |
| 20260906014553 | 81 | 0 | 0.0 | 2.6 | 0.00 | 0.00 | 0.00 | 32 | 1017.9 |
| 20260906014045 | 81 | 274 | 0.0 | 3.5 | 0.00 | 0.00 | 0.00 | 31 | 1017.9 |
| 20260906013545 | 81 | 0 | 0.0 | 3.5 | 0.00 | 0.00 | 0.00 | 32 | 1017.8 |
| 20260906013058 | 81 | 0 | 0.0 | 0.9 | 0.00 | 0.00 | 0.00 | 34 | 1017.7 |
| 20260906012545 | 82 | 0 | 0.0 | 0.0 | 0.00 | 0.00 | 0.00 | 34 | 1017.6 |
| 20260906012043 | 82 | 0 | 0.0 | 0.0 | 0.00 | 0.00 | 0.00 | 33 | 1017.6 |
| 20260906011603 | 83 | 0 | 0.0 | 0.0 | 0.00 | 0.00 | 0.00 | 32 | 1017.6 |
| 20260906011044 | 84 | 0 | 0.0 | 0.0 | 0.00 | 0.00 | 0.00 | 32 | 1017.6 |
| 20260906010544 | 85 | 0 | 0.0 | 0.0 | 0.00 | 0.00 | 0.00 | 31 | 1017.5 |
| 20260906010059 | 86 | 0 | 0.0 | 0.0 | 0.00 | 0.00 | 0.00 | 30 | 1017.6 |
| 20260906005544 | 88 | 0 | 0.0 | 0.0 | 0.00 | 0.00 | 0.00 | 28 | 1017.6 |
| 20260906005045 | 89 | 0 | 0.0 | 0.0 | 0.00 | 0.00 | 0.00 | 27 | 1017.7 |
| 20260906004602 | 89 | 0 | 0.0 | 0.9 | 0.00 | 0.00 | 0.00 | 26 | 1017.7 |
| 20260906004045 | 90 | 0 | 0.0 | 0.9 | 0.00 | 0.00 | 0.00 | 25 | 1017.6 |
| 20260906003545 | 91 | 0 | 0.0 | 1.7 | 0.00 | 0.00 | 0.00 | 25 | 1017.7 |
| 20260906003058 | 92 | 0 | 0.0 | 1.7 | 0.00 | 0.00 | 0.00 | 23 | 1017.6 |
| 20260906002544 | 93 | 0 | 0.0 | 1.7 | 0.00 | 0.00 | 0.00 | 23 | 1017.6 |
| 20260906002045 | 94 | 0 | 0.0 | 2.6 | 0.00 | 0.00 | 0.00 | 22 | 1017.5 |
| 20260906001554 | 94 | 0 | 0.0 | 2.6 | 0.00 | 0.00 | 0.00 | 24 | 1017.6 |
| 20260906001044 | 94 | 0 | 0.0 | 2.6 | 0.00 | 0.00 | 0.00 | 22 | 1017.5 |
| 20260906000544 | 95 | 272 | 0.0 | 2.6 | 0.00 | 0.00 | 0.00 | 22 | 1017.5 |
| 20260906000105 | 95 | 273 | 0.0 | 1.7 | 0.00 | 0.00 | 0.00 | 21 | 1017.5 |
| 20260905235548 | 95 | 0 | 0.0 | 1.7 | 0.00 | 0.00 | 0.00 | 20 | 1017.5 |
| 20260905235045 | 95 | 42 | 0.0 | 1.7 | 0.00 | 0.00 | 0.00 | 21 | 1017.5 |
| 20260905234554 | 95 | 0 | 0.0 | 0.9 | 0.00 | 0.00 | 0.00 | 22 | 1017.4 |
| 20260905234045 | 95 | 0 | 0.0 | 2.6 | 0.00 | 0.00 | 0.00 | 21 | 1017.4 |
| 20260905233545 | 95 | 0 | 0.0 | 3.5 | 0.00 | 0.00 | 0.00 | 22 | 1017.3 |
| 20260905233102 | 95 | 44 | 0.0 | 3.5 | 0.00 | 0.00 | 0.00 | 23 | 1017.4 |
| 20260905232545 | 95 | 44 | 0.9 | 3.5 | 0.00 | 0.00 | 0.00 | 22 | 1017.4 |
| 20260905232045 | 95 | 0 | 0.0 | 2.6 | 0.00 | 0.00 | 0.00 | 22 | 1017.4 |
| 20260905231605 | 94 | 230 | 0.0 | 3.5 | 0.00 | 0.00 | 0.00 | 20 | 1017.3 |
| 20260905231045 | 94 | 107 | 0.9 | 3.5 | 0.00 | 0.00 | 0.00 | 22 | 1017.4 |
| 20260905230545 | 94 | 0 | 0.0 | 2.6 | 0.00 | 0.00 | 0.00 | 21 | 1017.3 |
| 20260905230104 | 94 | 50 | 0.0 | 3.5 | 0.00 | 0.00 | 0.00 | 23 | 1017.3 |
| 20260905225544 | 94 | 59 | 0.9 | 3.5 | 0.00 | 0.00 | 0.00 | 22 | 1017.3 |
| 20260905225042 | 94 | 0 | 0.9 | 3.5 | 0.00 | 0.00 | 0.00 | 22 | 1017.2 |
| 20260905224602 | 94 | 47 | 0.0 | 2.6 | 0.00 | 0.00 | 0.00 | 22 | 1017.3 |
| 20260905224045 | 94 | 28 | 0.9 | 2.6 | 0.00 | 0.00 | 0.00 | 23 | 1017.2 |
| 20260905223541 | 94 | 61 | 0.0 | 2.6 | 0.00 | 0.00 | 0.00 | 22 | 1017.2 |
| 20260905223102 | 94 | 0 | 0.9 | 3.5 | 0.00 | 0.00 | 0.00 | 21 | 1017.3 |
| 20260905222546 | 94 | 0 | 0.0 | 3.5 | 0.00 | 0.00 | 0.00 | 21 | 1017.3 |
| 20260905222046 | 94 | 61 | 0.0 | 4.3 | 0.00 | 0.00 | 0.00 | 24 | 1017.4 |
| 20260905221624 | 93 | 0 | 0.0 | 6.1 | 0.00 | 0.00 | 0.00 | 23 | 1017.4 |